Airfield :
LOGIN :

Register | Disclaimer

   EN    FR    IT 

 










Legend :    VFR   Marginal VFR   IFR   Intensive IFR   Very Intensive IFR
Visi :
Ceiling :
>= 8 km
>= 3000ft
5 to 8 km
1000 to 3000 ft
1500m to 5 km
500 to 1000 ft
800 to 1500m
200 to 500 ft
< 800m
< 200 ft
Symbols :   Thunderstorms  Fog  Heavy snow  Heavy precipitations  Wind > 20 kt
SIGMETs :     Misc.  Thunderstorms  Icing  Turbulence  Mountain Waves  Volcanic Ashes







- Airport Elevation : 1548 ft


LKNA - Náměšť Air Base

CURRENT METAR :
  • 191400Z 30017KT CAVOK 26/09 Q1015 NOSIG

EXPIRED METARs :
  • 191300Z 32014KT 290V350 CAVOK 26/09 Q1015 NOSIG RMK BLU BLU
  • 191200Z 32013KT 280V340 CAVOK 25/11 Q1015 NOSIG

TAF TAF LKNA
Valid from the 19 at 12:00 until the 20 at 12:00 UTC


191100Z 1912/2012 33012KT CAVOK
TEMPO 1912/1918 31018KT
PROB30
TEMPO 1912/1917 SHRA SCT040
No reported NOTAMs for that airfield.



MET'MAP, your aeronautical weather chart ! - Copyright ORBIFLY December 2007 - Disclaimer

ORBIFLY MET'MAP TEAM :

Programming & Development : Alexandra Zaïnal
Concept & Development : Baudouin d'Aumeries
Co-Development & Prog : Marc-Olivier Méhu
Technical & hardware support : Manuel Goepfert

Contact : metmap@orbifly.com




SOURCES & CREDITS :

   NOAA